This demonstration page uses our WeatherBlox Daily Observations layout. Learn more.

36.17497, -115.13722

Hourly Observations for July 22, 2016

Temp ( °F °C ) Dew Point ( °F °C ) Humidity (%) Winds ( mph kmh ) Pressure ( in mb ) Visibility ( mi km ) Precip ( " mm )
12:53 am 00:53 Clear 93 33.9 36 2.2 13 13 NNW 5 7 29.74 1007 10 16.09344 0 0
1:53 am 01:53 Clear 91 32.8 34 1.1 13 13 NW 7 11 29.74 1007 10 16.09344 0 0
2:53 am 02:53 Clear 89 31.7 36 2.2 15 15 NNW 5 7 29.8 1009 10 16.09344 0 0
3:53 am 03:53 Clear 86 30 37 2.8 18 18 Calm 29.8 1009 10 16.09344 0 0
4:53 am 04:53 Clear 86 30 38 3.3 18 18 Calm 29.8 1009 10 16.09344 0 0
5:53 am 05:53 Sunny 83 28.3 40 4.4 22 22 NNW 3 6 29.83 1010 10 16.09344 0 0
6:53 am 06:53 Sunny 86 30 44 6.7 23 23 NW 3 6 29.83 1010 10 16.09344 0 0
7:53 am 07:53 Sunny 90 32.2 42 5.6 19 19 Calm 29.85 1011 10 16.09344 0 0
8:53 am 08:53 Sunny 95 35 38 3.3 14 14 NNE 6 9 29.83 1010 10 16.09344 0 0
9:53 am 09:53 Sunny 98 36.7 36 2.2 11 11 E 5 7 29.83 1010 10 16.09344 0 0
10:53 am 10:53 Sunny 103 39.4 33 0.6 9 9 SE 7 11 29.8 1009 10 16.09344 0 0
11:53 am 11:53 Sunny 106 41.1 38 3.3 10 10 E 5 7 29.74 1007 10 16.09344 0 0
12:53 pm 12:53 Sunny 110 43.3 39 3.9 9 9 SW 16 26 29.71 1006 10 16.09344 0 0
1:53 pm 13:53 Sunny 110 43.3 37 2.8 8 8 WSW 16 26 29.68 1005 10 16.09344 0 0
2:53 pm 14:53 Sunny 111 43.9 38 3.3 8 8 W 9 15 29.65 1004 10 16.09344 0 0
3:53 pm 15:53 Sunny 109 42.8 38 3.3 9 9 WSW 9 15 29.62 1003 10 16.09344 0 0
4:53 pm 16:53 Sunny 111 43.9 38 3.3 8 8 SW 16 26 29.56 1001 10 16.09344 0 0
5:53 pm 17:53 Sunny 109 42.8 36 2.2 8 8 SSW 12 19 29.56 1001 10 16.09344 0 0
6:53 pm 18:53 Sunny 109 42.8 34 1.1 7 7 SSW 15 24 29.56 1001 10 16.09344 0 0
7:53 pm 19:53 Sunny 106 41.1 34 1.1 8 8 SW 9 15 29.59 1002 10 16.09344 0 0
8:53 pm 20:53 Clear 103 39.4 33 0.6 9 9 SSW 9 15 29.59 1002 10 16.09344 0 0
9:53 pm 21:53 Clear 100 37.8 33 0.6 10 10 SW 8 13 29.65 1004 10 16.09344 0 0
10:53 pm 22:53 Clear 98 36.7 33 0.6 10 10 WSW 6 9 29.65 1004 10 16.09344 0 0
11:53 pm 23:53 Clear 96 35.6 34 1.1 11 11 WNW 6 9 29.65 1004 10 16.09344 0 0

Powered by AerisWeather